Location: Piolenc
(44.1794°N, 4.7641°E)
Time: 03:59:27
(UTC+00:00)

Cosmos 1602 Rocket - Pass Details

Date: 27 January 2021
Orbit: 604 x 632 km, 82.5° (Epoch: 27 February)

Event Time Altitude Azimuth Distance (km) Brightness Sun altitude
Exits shadow 04:40:25 22° 6° (N) 1,400 5.4 -25.7°
Maximum altitude 04:43:12 58° 79° (E) 739 4.1 -25.2°
Drops below altitude 10° 04:47:36 10° 159° (SSE) 2,009 6.4 -24.4°
Sets 04:49:51 0° 163° (SSE) 2,912 7.3 -24.0°
